Weather History for Douglas, WY

Change the Weather History Date:

Sunday, December 16, 2012

  Actual Average Record
Temperature  
Mean Temperature 29 °F 24 °F  
Max Temperature 41 °F 37 °F 56 °F (2002)
Min Temperature 17 °F 10 °F -10 °F (2008)
Degree Days  
Heating Degree Days 36 42  
Month to date heating degree days 410 647  
Since 1 July heating degree days 1957 2469  
Cooling Degree Days 0 0  
Month to date cooling degree days 0 0  
Year to date cooling degree days 831 486  
Moisture  
Dew Point 12 °F    
Average Humidity 60    
Maximum Humidity 91    
Minimum Humidity 29    
Precipitation  
Precipitation 0.00 in 0.01 in 0.28 in (1975)
Month to date precipitation T 0.22  
Year to date precipitation 5.26 13.21  
Sea Level Pressure  
Sea Level Pressure 29.73 in    
Wind  
Wind Speed 12 mph (West)    
Max Wind Speed 33 mph    
Max Gust Speed 40 mph    
Visibility 10 miles    
Events      
T = Trace of Precipitation, MM = Missing Value Source: NWS Daily Summary

Daily Weather History Graph

Daily Weather History Graph

Search for Another Location

Airport:

Trip Planner

Search our weather history database for the weather conditions in past years. The results will help you decide how hot, cold, wet, or windy it might be!

Date:

Astronomy

Dec. 16, 2012 Rise Set
Actual Time 7:26 AM MST 4:28 PM MST
Civil Twilight 6:53 AM MST 5:00 PM MST
Nautical Twilight 6:18 AM MST 5:36 PM MST
Astronomical Twilight 5:43 AM MST 6:11 PM MST
Moon 9:57 AM MST (12/16) 8:50 PM MST (12/16)
Length of Visible Light 10h 06m
Length of Day
9h 02m
Waxing Crescent, 16% of the Moon is Illuminated
Dec 16
Waxing Crescent
Dec 19
First Quarter
Dec 28
Full
Jan 4
Last Quarter
Jan 11
New

Hourly Weather History & Observations

Time (MST) Temp. Windchill Dew Point Humidity Pressure Visibility Wind Dir Wind Speed Gust Speed Precip Events Conditions
12:53 AM 24.1 °F - 21.0 °F 88% 29.72 in 10.0 mi Calm Calm - N/A   Overcast
1:53 AM 21.0 °F - 17.1 °F 85% 29.72 in 10.0 mi Calm Calm - N/A   Clear
3:53 AM 18.0 °F - 14.0 °F 84% 29.71 in 10.0 mi Calm Calm - N/A   Clear
4:53 AM 28.0 °F 19.3 °F 17.1 °F 63% 29.68 in 10.0 mi SW 9.2 mph - N/A   Partly Cloudy
5:53 AM 26.1 °F 20.5 °F 14.0 °F 60% 29.70 in 10.0 mi West 4.6 mph - N/A   Scattered Clouds
6:53 AM 28.9 °F 16.9 °F 12.9 °F 51% 29.69 in 10.0 mi WSW 17.3 mph 23.0 mph N/A   Clear
7:53 AM 28.0 °F 19.3 °F 10.9 °F 49% 29.70 in 10.0 mi West 9.2 mph - N/A   Clear
8:53 AM 32.0 °F 20.5 °F 12.0 °F 44% 29.68 in 10.0 mi West 18.4 mph 29.9 mph N/A   Clear
9:53 AM 35.1 °F 21.8 °F 12.0 °F 39% 29.67 in 10.0 mi West 29.9 mph 39.1 mph N/A   Clear
10:53 AM 37.0 °F 24.7 °F 12.0 °F 36% 29.68 in 10.0 mi West 28.8 mph 38.0 mph N/A   Clear
11:53 AM 37.0 °F 25.4 °F 10.9 °F 34% 29.67 in 10.0 mi WNW 25.3 mph 33.4 mph N/A   Clear
12:53 PM 39.9 °F 28.4 °F 10.9 °F 31% 29.66 in 10.0 mi West 29.9 mph 34.5 mph N/A   Clear
1:53 PM 39.9 °F 29.7 °F 10.9 °F 31% 29.68 in 10.0 mi West 23.0 mph 34.5 mph N/A   Mostly Cloudy
2:53 PM 37.0 °F 26.4 °F 9.0 °F 31% 29.71 in 10.0 mi WNW 20.7 mph 31.1 mph N/A   Mostly Cloudy
3:53 PM 37.0 °F 27.7 °F 8.1 °F 30% 29.74 in 10.0 mi WNW 16.1 mph - N/A   Overcast
4:53 PM 33.1 °F 24.9 °F 8.1 °F 35% 29.74 in 10.0 mi NW 10.4 mph - N/A   Overcast
5:53 PM 30.0 °F 25.2 °F 8.1 °F 40% 29.78 in 10.0 mi WNW 4.6 mph - N/A   Overcast
6:53 PM 32.0 °F 23.6 °F 10.9 °F 42% 29.78 in 10.0 mi West 10.4 mph - N/A   Overcast
7:53 PM 28.9 °F 20.4 °F 12.9 °F 51% 29.80 in 10.0 mi West 9.2 mph - N/A   Mostly Cloudy
8:53 PM 24.1 °F 17.0 °F 10.9 °F 57% 29.81 in 10.0 mi West 5.8 mph - N/A   Clear
9:53 PM 19.9 °F 13.4 °F 10.0 °F 65% 29.81 in 10.0 mi West 4.6 mph - N/A   Clear
10:53 PM 19.9 °F 12.1 °F 10.9 °F 68% 29.80 in 10.0 mi West 5.8 mph - N/A   Clear
11:53 PM 19.9 °F - 10.0 °F 65% 29.78 in 10.0 mi Calm Calm - N/A   Clear